Borger, TX

10:03 AM CDT on April 28, 2017 (GMT -0500)
Hutchinson County

Weather History for KBGD - December, 2012

Change the Weather History Date:

Wednesday, December 12, 2012

  Actual Average Record
Temperature  
Mean Temperature 47 °F 39 °F  
Max Temperature 64 °F 50 °F 75 °F (1977)
Min Temperature 30 °F 27 °F -2 °F (1961)
Degree Days  
Heating Degree Days 18 26  
Month to date heating degree days 208 297  
Since 1 July heating degree days 745 1014  
Cooling Degree Days 0 0  
Month to date cooling degree days 0 0  
Year to date cooling degree days 2524 1839  
Moisture  
Dew Point 11 °F    
Average Humidity 28    
Maximum Humidity 43    
Minimum Humidity 13    
Precipitation  
Precipitation 0.00 in 0.02 in 0.41 in (2015)
Month to date precipitation T 0.21  
Year to date precipitation 15.62 21.16  
Snow  
Snow 0.00 in - - ()
Month to date snowfall T  
Since 1 July snowfall T  
Snow Depth 0.00 in    
Sea Level Pressure  
Sea Level Pressure 29.99 in    
Wind  
Wind Speed 13 mph (SSW)    
Max Wind Speed 18 mph    
Max Gust Speed 28 mph    
Visibility 10 miles    
Events      
T = Trace of Precipitation, MM = Missing Value Source: NWS Daily Summary

Daily Weather History Graph

Daily Weather History Graph

Search for Another Location

Airport or City:

Trip Planner

Search our weather history database for the weather conditions in past years. The results will help you decide how hot, cold, wet, or windy it might be!

Date:

Astronomy

Dec. 12, 2012 Rise Set
Actual Time 7:46 AM CST 5:32 PM CST
Civil Twilight 7:17 AM CST 6:01 PM CST
Nautical Twilight 6:46 AM CST 6:33 PM CST
Astronomical Twilight 6:14 AM CST 7:04 PM CST
Moon 6:53 AM CST (12/12) 5:11 PM CST (12/12)
Length of Visible Light 10h 43m
Length of Day
9h 46m
Waning Crescent, 1% of the Moon is Illuminated
Dec 12
Waning Crescent
Dec 13
New
Dec 19
First Quarter
Dec 28
Full
Jan 4
Last Quarter

Hourly Weather History & Observations

Time (CST) Temp. Windchill Dew Point Humidity Pressure Visibility Wind Dir Wind Speed Gust Speed Precip Events Conditions
12:51 AM 32.0 °F 22.1 °F 10.0 °F 40% 30.06 in 10.0 mi South 13.8 mph 23.0 mph N/A   Clear
1:51 AM 32.0 °F 21.2 °F 10.0 °F 40% 30.04 in 10.0 mi South 16.1 mph 21.9 mph N/A   Clear
2:51 AM 32.0 °F 21.6 °F 10.9 °F 42% 30.04 in 10.0 mi SSW 15.0 mph 23.0 mph N/A   Clear
3:51 AM 30.9 °F 20.2 °F 10.9 °F 43% 30.03 in 10.0 mi South 15.0 mph 23.0 mph N/A   Clear
4:51 AM 30.0 °F 20.0 °F 10.9 °F 45% 30.02 in 10.0 mi South 12.7 mph - N/A   Clear
5:51 AM 32.0 °F 20.8 °F 10.9 °F 42% 30.01 in 10.0 mi South 17.3 mph 25.3 mph N/A   Clear
6:51 AM 30.9 °F 21.2 °F 10.9 °F 43% 30.01 in 10.0 mi South 12.7 mph - N/A   Clear
7:51 AM 30.9 °F 23.5 °F 10.0 °F 42% 30.03 in 10.0 mi SSW 8.1 mph - N/A   Clear
8:51 AM 36.0 °F 27.5 °F 10.0 °F 34% 30.02 in 10.0 mi South 12.7 mph - N/A   Clear
9:51 AM 41.0 °F 32.5 °F 10.9 °F 29% 30.01 in 10.0 mi SSW 17.3 mph 25.3 mph N/A   Clear
10:51 AM 46.0 °F 39.3 °F 12.0 °F 25% 30.01 in 10.0 mi SSW 16.1 mph 23.0 mph N/A   Clear
11:51 AM 51.1 °F - 12.9 °F 22% 29.99 in 10.0 mi WSW 17.3 mph 26.5 mph N/A   Clear
12:51 PM 55.0 °F - 12.9 °F 19% 29.95 in 10.0 mi SW 13.8 mph 21.9 mph N/A   Clear
2:51 PM 63.0 °F - 10.9 °F 13% 29.91 in 10.0 mi SSW 6.9 mph - N/A   Clear
3:51 PM 64.0 °F - 12.0 °F 13% 29.91 in 10.0 mi SW 10.4 mph 21.9 mph N/A   Clear
4:51 PM 63.0 °F - 12.0 °F 14% 29.90 in 10.0 mi SSW 8.1 mph - N/A   Clear
5:51 PM 57.9 °F - 12.0 °F 16% 29.92 in 10.0 mi South 8.1 mph - N/A   Clear
6:51 PM 55.0 °F - 12.9 °F 19% 29.95 in 10.0 mi SSW 13.8 mph 21.9 mph N/A   Clear
7:51 PM 53.1 °F - 12.0 °F 20% 29.96 in 10.0 mi South 9.2 mph - N/A   Clear
8:51 PM 55.0 °F - 9.0 °F 16% 29.96 in 10.0 mi SSW 16.1 mph 24.2 mph N/A   Clear
9:51 PM 51.1 °F - 10.0 °F 19% 29.98 in 10.0 mi SSW 13.8 mph 23.0 mph N/A   Clear
10:51 PM 45.0 °F 41.2 °F 9.0 °F 23% 29.99 in 10.0 mi South 6.9 mph - N/A   Clear
11:51 PM 45.0 °F 38.5 °F 9.0 °F 23% 29.99 in 10.0 mi SSW 13.8 mph 20.7 mph N/A   Clear